This is the latest recevied weather packets stored in our database for station/object OM6ACB-6. If no packets are shown the sender has not sent any weather packets the latest 10 day(s).
| Time | Temp. | Humidity | Pressure | Rain* | Wind** | Luminosity | Snow |
|---|---|---|---|---|---|---|---|
| 1788606969 | 22.78° C | 21% | 1022.7 hPa | 0 mm | - | - | - |
| 1788606368 | 22.22° C | 21% | 1022.8 hPa | 0 mm | - | - | - |
| 1788605768 | 22.22° C | 21% | 1022.7 hPa | 0 mm | - | - | - |
| 1788605168 | 22.78° C | 21% | 1022.7 hPa | 0 mm | - | - | - |
| 1788604567 | 23.33° C | 21% | 1022.8 hPa | 0 mm | - | - | - |
| 1788603967 | 21.11° C | 22% | 1022.8 hPa | 0 mm | - | - | - |
| 1788603367 | 21.67° C | 22% | 1022.8 hPa | 0 mm | - | - | - |
| 1788602767 | 19.44° C | 23% | 1022.6 hPa | 0 mm | - | - | - |
| 1788602166 | 18.89° C | 23% | 1022.8 hPa | 0 mm | - | - | - |
| 1788601566 | 18.33° C | 23% | 1022.7 hPa | 0 mm | - | - | - |
| 1788600966 | 17.78° C | 24% | 1022.7 hPa | 0 mm | - | - | - |
| 1788600365 | 18.33° C | 23% | 1022.7 hPa | 0 mm | - | - | - |
| 1788599773 | 18.33° C | 23% | 1022.6 hPa | 0 mm | - | - | - |
| 1788599165 | 18.33° C | 23% | 1022.2 hPa | 0 mm | - | - | - |
| 1788598564 | 17.78° C | 24% | 1021.7 hPa | 0 mm | - | - | - |
| 1788597964 | 17.78° C | 24% | 1021.6 hPa | 0 mm | - | - | - |
| 1788597364 | 16.67° C | 24% | 1021.8 hPa | 0 mm | - | - | - |
| 1788596764 | 16.67° C | 24% | 1022.1 hPa | 0 mm | - | - | - |
| 1788596163 | 16.67° C | 24% | 1022 hPa | 0 mm | - | - | - |
| 1788595563 | 17.22° C | 24% | 1022.4 hPa | 0 mm | - | - | - |
| 1788594963 | 17.22° C | 24% | 1022 hPa | 0 mm | - | - | - |
| 1788594362 | 17.22° C | 24% | 1021.5 hPa | 0 mm | - | - | - |
| 1788593762 | 17.22° C | 24% | 1021.7 hPa | 0 mm | - | - | - |
| 1788593162 | 17.78° C | 24% | 1021.5 hPa | 0 mm | - | - | - |
| 1788592562 | 18.33° C | 23% | 1021.3 hPa | 0 mm | - | - | - |
* Rain latest hour (hover to see other rain measurements)
** Current wind speed in m/s (hover to see current wind gust speed)